This is the latest recevied weather packets stored in our database for station/object XQ6AK-15. If no packets are shown the sender has not sent any weather packets the latest 10 day(s).
| Time | Temp. | Humidity | Pressure | Rain* | Wind** | Luminosity | Snow |
|---|---|---|---|---|---|---|---|
| 1778372328 | 5° C | 99% | 1024 hPa | 0 mm | - | 0 W/m² | - |
| 1778372026 | 4.44° C | 99% | 1024.2 hPa | 0 mm | - | 0 W/m² | - |
| 1778371722 | 4.44° C | 99% | 1024.1 hPa | 0 mm | - | 0 W/m² | - |
| 1778371419 | 4.44° C | 99% | 1024 hPa | 0 mm | - | 0 W/m² | - |
| 1778371116 | 4.44° C | 99% | 1024 hPa | 0 mm | - | 0 W/m² | - |
| 1778370812 | 5° C | 99% | 1024 hPa | 0 mm | - | 0 W/m² | - |
| 1778370508 | 5° C | 99% | 1024.2 hPa | 0 mm | - | 0 W/m² | - |
| 1778370205 | 5° C | 99% | 1024.1 hPa | 0 mm | - | 0 W/m² | - |
| 1778369904 | 5° C | 98% | 1024.1 hPa | 0 mm | - | 0 W/m² | - |
| 1778369601 | 5° C | 97% | 1023.9 hPa | 0 mm | - | 0 W/m² | - |
| 1778369296 | 5° C | 97% | 1024.1 hPa | 0 mm | - | 0 W/m² | - |
| 1778368994 | 5.56° C | 97% | 1024.2 hPa | 0 mm | - | 0 W/m² | - |
| 1778368690 | 5.56° C | 96% | 1024 hPa | 0 mm | - | 0 W/m² | - |
| 1778368387 | 5.56° C | 96% | 1024 hPa | 0 mm | - | 0 W/m² | - |
| 1778368085 | 5.56° C | 95% | 1023.9 hPa | 0 mm | - | 0 W/m² | - |
| 1778367783 | 6.11° C | 93% | 1023.8 hPa | 0 mm | - | 0 W/m² | - |
| 1778367483 | 6.11° C | 92% | 1023.7 hPa | 0 mm | - | 0 W/m² | - |
| 1778367180 | 6.11° C | 92% | 1023.8 hPa | 0 mm | - | 0 W/m² | - |
| 1778366875 | 6.67° C | 92% | 1023.9 hPa | 0 mm | - | 0 W/m² | - |
| 1778366573 | 6.67° C | 91% | 1023.7 hPa | 0 mm | - | 0 W/m² | - |
| 1778366269 | 6.67° C | 90% | 1023.8 hPa | 0 mm | - | 0 W/m² | - |
| 1778365966 | 6.67° C | 91% | 1023.7 hPa | 0 mm | - | 0 W/m² | - |
| 1778365663 | 7.22° C | 92% | 1023.6 hPa | 0 mm | - | 0 W/m² | - |
| 1778365358 | 7.22° C | 90% | 1023.4 hPa | 0 mm | - | 0 W/m² | - |
| 1778365054 | 7.78° C | 88% | 1023.3 hPa | 0 mm | - | 0 W/m² | - |
* Rain latest hour (hover to see other rain measurements)
** Current wind speed in m/s (hover to see current wind gust speed)